Powrót do katalogu

STARLINK-36696

AktywnyŁącznośćSSO
NORAD 67651·PAYLOAD·🇺🇸 United States

Wystrzelony Feb 2, 2026 z Vandenberg Space Force Base

Loading…

Następne Przeloty (najbliższe 24 godziny)

TLE

ŚwieżeSource: CelesTrak SupGP

Epoka: Sep 15, 2026, 03:55 UTC

1 67651C 26022D   26258.16368056 -.00049643  00000+0 -15412-2 0  2585
2 67651  97.2838 289.7670 0000996  97.3408  21.4384 15.33461331    11

Śledź STARLINK-36696 w czasie rzeczywistym z AllMySat

Download on the App Store